Weather History for Martinsville, VA

Change the Weather History Date:

Sunday, June 23, 2013

  Actual Average (KGSO) Record (KGSO)
Temperature  
Mean Temperature 77 °F 77 °F  
Max Temperature 90 °F 87 °F 102 °F (1914)
Min Temperature 64 °F 67 °F 51 °F (1947)
Degree Days  
Heating Degree Days 0 0  
Month to date heating degree days 5  
Since 1 June heating degree days 5  
Since 1 July heating degree days 3617  
Cooling Degree Days 12 12  
Month to date cooling degree days 219  
Year to date cooling degree days 378  
Since 1 June cooling degree days 219  
Growing Degree Days 27 (Base 50)    
Moisture  
Dew Point 66 °F    
Average Humidity 73    
Maximum Humidity 99    
Minimum Humidity 40    
Precipitation  
Precipitation 0.00 in 0.13 in 1.99 in (2006)
Month to date precipitation 2.90  
Year to date precipitation 19.60  
Sea Level Pressure  
Sea Level Pressure 30.21 in    
Wind  
Wind Speed 1 mph (South)    
Max Wind Speed 6 mph    
Max Gust Speed -    
Visibility 10 miles    
Events      
T = Trace of Precipitation, MM = Missing Value Source: NWS Daily Summary

Daily Weather History Graph

Daily Weather History Graph

Search for Another Location

Airport:

Trip Planner

Search our weather history database for the weather conditions in past years. The results will help you decide how hot, cold, wet, or windy it might be!

Date:

Astronomy

Jun. 23, 2013 Rise Set
Actual Time 6:02 AM EDT 8:42 PM EDT
Civil Twilight 5:31 AM EDT 9:12 PM EDT
Nautical Twilight 4:53 AM EDT 9:51 PM EDT
Astronomical Twilight 4:10 AM EDT 10:33 PM EDT
Moon 8:55 PM EDT (6/23) 6:16 AM EDT (6/23)
Length of Visible Light 15h 41m
Length of Day
14h 39m
Full, 100% of the Moon is Illuminated
Jun 23
Full
Jun 30
Last Quarter
Jul 8
New
Jul 15
First Quarter
Jul 22
Full

Hourly Weather History & Observations

Time (EDT) Temp. Heat Index Dew Point Humidity Pressure Visibility Wind Dir Wind Speed Gust Speed Precip Events Conditions
12:15 AM 66.4 °F - 65.3 °F 96% 30.24 in 10.0 mi Calm Calm - N/A   Mostly Cloudy
12:35 AM 67.1 °F - 65.7 °F 95% 30.24 in 10.0 mi Calm Calm - N/A   Overcast
12:55 AM 68.2 °F - 66.4 °F 94% 30.23 in 10.0 mi Calm Calm - N/A   Overcast
1:15 AM 68.7 °F - 66.9 °F 94% 30.23 in 10.0 mi Calm Calm - N/A   Overcast
1:35 AM 68.9 °F - 67.1 °F 94% 30.22 in 10.0 mi Calm Calm - N/A   Overcast
1:55 AM 68.0 °F - 66.0 °F 93% 30.20 in 10.0 mi Calm Calm - N/A   Scattered Clouds
2:15 AM 66.6 °F - 65.5 °F 96% 30.20 in 7.0 mi Calm Calm - N/A   Scattered Clouds
2:35 AM 66.6 °F - 65.7 °F 97% 30.20 in 10.0 mi Calm Calm - N/A   Mostly Cloudy
2:55 AM 67.1 °F - 65.8 °F 96% 30.20 in 10.0 mi Calm Calm - N/A   Overcast
3:15 AM 67.1 °F - 65.8 °F 96% 30.20 in 10.0 mi Calm Calm - N/A   Overcast
3:35 AM 66.7 °F - 65.5 °F 96% 30.20 in 10.0 mi Calm Calm - N/A   Mostly Cloudy
3:55 AM 66.6 °F - 65.7 °F 97% 30.21 in 10.0 mi Calm Calm - N/A   Mostly Cloudy
4:15 AM 66.2 °F - 64.9 °F 96% 30.20 in 7.0 mi Calm Calm - N/A   Scattered Clouds
4:35 AM 66.0 °F - 64.9 °F 96% 30.20 in 10.0 mi Calm Calm - N/A   Clear
4:55 AM 65.1 °F - 64.2 °F 97% 30.20 in 7.0 mi Calm Calm - N/A   Clear
5:15 AM 64.4 °F - 63.5 °F 97% 30.20 in 5.0 mi Calm Calm - N/A   Clear
5:35 AM 64.8 °F - 64.4 °F 99% 30.20 in 7.0 mi Calm Calm - N/A   Clear
5:55 AM 64.4 °F - 63.9 °F 98% 30.22 in 7.0 mi Calm Calm - N/A   Mostly Cloudy
6:15 AM 65.7 °F - 64.9 °F 98% 30.22 in 7.0 mi Calm Calm - N/A   Overcast
6:35 AM 66.2 °F - 65.3 °F 97% 30.23 in 10.0 mi Calm Calm - N/A   Overcast
6:55 AM 66.6 °F - 65.5 °F 96% 30.23 in 10.0 mi Calm Calm - N/A   Overcast
7:15 AM 67.1 °F - 65.5 °F 95% 30.23 in 10.0 mi Calm Calm - N/A   Overcast
7:35 AM 68.0 °F - 66.2 °F 94% 30.24 in 10.0 mi Calm Calm - N/A   Overcast
7:55 AM 69.1 °F - 66.9 °F 93% 30.25 in 10.0 mi Calm Calm - N/A   Overcast
8:15 AM 70.0 °F - 67.1 °F 91% 30.26 in 10.0 mi Calm Calm - N/A   Overcast
8:35 AM 71.1 °F - 67.3 °F 88% 30.26 in 10.0 mi Calm Calm - N/A   Overcast
8:55 AM 73.0 °F - 68.2 °F 85% 30.26 in 10.0 mi Calm Calm - N/A   Scattered Clouds
9:15 AM 76.6 °F - 69.1 °F 77% 30.26 in 10.0 mi Calm Calm - N/A   Scattered Clouds
9:35 AM 78.1 °F - 69.3 °F 74% 30.26 in 10.0 mi SW 3.5 mph - N/A   Mostly Cloudy
9:55 AM 78.3 °F - 68.9 °F 73% 30.26 in 10.0 mi Calm Calm - N/A   Mostly Cloudy
10:15 AM 80.1 °F 82.7 °F 68.4 °F 67% 30.26 in 10.0 mi SW 3.5 mph - N/A   Mostly Cloudy
10:35 AM 81.3 °F 84.3 °F 68.7 °F 65% 30.26 in 10.0 mi SW 3.5 mph - N/A   Scattered Clouds
10:55 AM 81.5 °F 84.6 °F 68.7 °F 65% 30.25 in 10.0 mi Calm Calm - N/A   Scattered Clouds
11:15 AM 83.5 °F 87.2 °F 69.1 °F 62% 30.26 in 10.0 mi WSW 3.5 mph - N/A   Mostly Cloudy
11:35 AM 83.1 °F 86.6 °F 68.7 °F 62% 30.26 in 10.0 mi Calm Calm - N/A   Mostly Cloudy
11:55 AM 83.7 °F 87.2 °F 68.9 °F 61% 30.25 in 10.0 mi South 3.5 mph - N/A   Scattered Clouds
12:15 PM 83.7 °F 86.7 °F 68.0 °F 59% 30.24 in 10.0 mi WNW 4.6 mph - N/A   Mostly Cloudy
12:35 PM 85.6 °F 88.2 °F 66.7 °F 53% 30.24 in 10.0 mi SSW 5.8 mph - N/A   Scattered Clouds
12:55 PM 84.9 °F 87.6 °F 67.1 °F 55% 30.24 in 10.0 mi WNW 3.5 mph - N/A   Scattered Clouds
1:15 PM 86.0 °F 87.9 °F 65.3 °F 50% 30.23 in 10.0 mi WSW 5.8 mph - N/A   Scattered Clouds
1:35 PM 86.5 °F 88.4 °F 65.3 °F 49% 30.22 in 10.0 mi South 3.5 mph - N/A   Scattered Clouds
1:55 PM 87.8 °F 89.7 °F 65.5 °F 47% 30.22 in 10.0 mi South 3.5 mph - N/A   Scattered Clouds
2:15 PM 87.1 °F 88.6 °F 64.4 °F 47% 30.21 in 10.0 mi SSE 4.6 mph - N/A   Scattered Clouds
2:35 PM 88.9 °F 90.7 °F 64.8 °F 45% 30.20 in 10.0 mi South 3.5 mph - N/A   Scattered Clouds
2:55 PM 88.3 °F 89.2 °F 63.3 °F 43% 30.19 in 10.0 mi Calm Calm - N/A   Clear
3:15 PM 89.6 °F 90.1 °F 62.6 °F 40% 30.19 in 10.0 mi Calm Calm - N/A   Clear
3:35 PM 90.7 °F 92.4 °F 64.4 °F 42% 30.17 in 10.0 mi SSE 4.6 mph - N/A   Clear
3:55 PM 89.4 °F 91.5 °F 65.3 °F 45% 30.17 in 10.0 mi Calm Calm - N/A   Scattered Clouds
4:15 PM 90.7 °F 92.4 °F 64.8 °F 42% 30.17 in 10.0 mi Calm Calm - N/A   Mostly Cloudy
4:35 PM 90.7 °F 92.4 °F 64.6 °F 42% 30.16 in 10.0 mi Calm Calm - N/A   Scattered Clouds
4:55 PM 89.1 °F 91.3 °F 65.7 °F 46% 30.17 in 10.0 mi South 4.6 mph - N/A   Scattered Clouds
5:15 PM 90.7 °F 92.4 °F 64.8 °F 42% 30.17 in 10.0 mi SSE 4.6 mph - N/A   Scattered Clouds
5:35 PM 90.3 °F 91.9 °F 64.4 °F 42% 30.16 in 10.0 mi Calm Calm - N/A   Clear
5:55 PM 89.8 °F 91.8 °F 64.9 °F 44% 30.17 in 10.0 mi SSE 3.5 mph - N/A   Clear
6:15 PM 88.9 °F 90.7 °F 64.9 °F 45% 30.16 in 10.0 mi SSE 3.5 mph - N/A   Clear
6:35 PM 88.5 °F 90.1 °F 64.9 °F 45% 30.16 in 10.0 mi Calm Calm - N/A   Clear
6:55 PM 87.4 °F 88.8 °F 64.2 °F 46% 30.17 in 10.0 mi Calm Calm - N/A   Clear
7:15 PM 86.0 °F 89.4 °F 68.0 °F 55% 30.17 in 10.0 mi SSE 3.5 mph - N/A   Scattered Clouds
7:35 PM 84.6 °F 88.2 °F 68.7 °F 59% 30.17 in 10.0 mi South 3.5 mph - N/A   Scattered Clouds
7:55 PM 81.9 °F 85.6 °F 69.8 °F 67% 30.17 in 10.0 mi SSE 5.8 mph - N/A   Clear
8:15 PM 80.1 °F 82.8 °F 68.5 °F 68% 30.18 in 10.0 mi South 4.6 mph - N/A   Clear
8:35 PM 78.6 °F - 67.5 °F 68% 30.18 in 10.0 mi South 3.5 mph - N/A   Scattered Clouds
8:55 PM 77.5 °F - 67.1 °F 70% 30.18 in 10.0 mi SSE 4.6 mph - N/A   Scattered Clouds
9:15 PM 76.6 °F - 66.9 °F 72% 30.19 in 10.0 mi Calm Calm - N/A   Clear
9:35 PM 74.8 °F - 66.2 °F 74% 30.20 in 10.0 mi Calm Calm - N/A   Clear
9:55 PM 74.8 °F - 66.6 °F 75% 30.21 in 10.0 mi Calm Calm - N/A   Clear
10:15 PM 73.9 °F - 66.6 °F 78% 30.21 in 10.0 mi Calm Calm - N/A   Clear
10:35 PM 73.0 °F - 66.9 °F 81% 30.21 in 10.0 mi Calm Calm - N/A   Clear
10:55 PM 69.8 °F - 66.4 °F 89% 30.22 in 10.0 mi Calm Calm - N/A   Clear
11:15 PM 69.8 °F - 66.7 °F 90% 30.22 in 10.0 mi Calm Calm - N/A   Clear
11:35 PM 68.2 °F - 66.0 °F 93% 30.22 in 10.0 mi Calm Calm - N/A   Clear
11:55 PM 68.0 °F - 66.0 °F 93% 30.22 in 10.0 mi Calm Calm - N/A   Clear